DLH011 EDDF-LIPZ

Flight info

Callsign DLH011
Flight time 0h 58m
Altitude 29000
Route ANEKI2L/18 ANEKI Y163 HERBI/N0446F310 Y163 NATOR DCT TRA DCT ARGAX DCT RESIA/N0377F190 P131 ADOSA L612 ALBET
Aircraft A320/M-SDE3FGHIRWY/LB1

Departure

Time 2026-04-18 10:02
Airport Frankfurt Main Airport (EDDF)

Arrival

Time 2026-04-18 11:00
Airport Venice Marco Polo Airport (LIPZ)
Time Latitude Longitude Altitude Speed Heading
2026-04-18 09:30 50.04540 8.56223 363 ft 0 kts 38°
2026-04-18 09:51 50.04527 8.56208 360 ft 4 kts 26°
2026-04-18 09:51 50.04506 8.56198 356 ft 4 kts
2026-04-18 09:51 50.04486 8.56207 356 ft 4 kts 296°
2026-04-18 09:52 50.04483 8.56242 359 ft 2 kts 250°
2026-04-18 09:52 50.04490 8.56275 358 ft 4 kts 250°
2026-04-18 09:52 50.04500 8.56314 364 ft 4 kts 250°
2026-04-18 09:52 50.04509 8.56354 360 ft 4 kts 250°
2026-04-18 09:53 50.04515 8.56378 360 ft 0 kts 250°
2026-04-18 09:55 50.04514 8.56376 356 ft 2 kts 250°
2026-04-18 09:55 50.04494 8.56289 358 ft 15 kts 250°
2026-04-18 09:56 50.04453 8.56120 363 ft 17 kts 249°
2026-04-18 09:56 50.04382 8.56036 358 ft 12 kts 170°
2026-04-18 09:56 50.04305 8.56073 360 ft 11 kts 173°
2026-04-18 09:56 50.04254 8.56000 359 ft 11 kts 248°
2026-04-18 09:57 50.04216 8.55841 355 ft 18 kts 250°
2026-04-18 09:57 50.04171 8.55651 352 ft 19 kts 250°
2026-04-18 09:57 50.04122 8.55445 357 ft 21 kts 250°
2026-04-18 09:57 50.04070 8.55224 357 ft 22 kts 249°
2026-04-18 09:58 50.04012 8.54986 356 ft 25 kts 249°
2026-04-18 09:58 50.03948 8.54718 355 ft 28 kts 250°
2026-04-18 09:58 50.03878 8.54431 355 ft 28 kts 246°
2026-04-18 09:58 50.03792 8.54191 351 ft 24 kts 249°
2026-04-18 09:59 50.03746 8.54001 346 ft 16 kts 249°
2026-04-18 09:59 50.03707 8.53837 351 ft 16 kts 250°
2026-04-18 09:59 50.03668 8.53673 346 ft 16 kts 249°
2026-04-18 10:00 50.03586 8.53342 335 ft 16 kts 249°
2026-04-18 10:00 50.03547 8.53182 336 ft 16 kts 249°
2026-04-18 10:00 50.03509 8.53026 335 ft 15 kts 249°
2026-04-18 10:00 50.03472 8.52877 335 ft 14 kts 248°
2026-04-18 10:01 50.03434 8.52735 333 ft 14 kts 249°
2026-04-18 10:01 50.03408 8.52632 334 ft 9 kts 249°
2026-04-18 10:01 50.03364 8.52596 335 ft 10 kts 180°
2026-04-18 10:01 50.03257 8.52597 334 ft 46 kts 179°
2026-04-18 10:02 50.02670 8.52605 332 ft 119 kts 180°
2026-04-18 10:02 50.01646 8.52621 405 ft 166 kts 179°
2026-04-18 10:02 50.00513 8.52642 1157 ft 163 kts 179°
2026-04-18 10:02 49.99352 8.52700 1839 ft 174 kts 179°
2026-04-18 10:03 49.97659 8.52824 2577 ft 193 kts 178°
2026-04-18 10:03 49.96717 8.52894 2829 ft 207 kts 178°
2026-04-18 10:03 49.95205 8.52999 3266 ft 227 kts 179°
2026-04-18 10:03 49.93602 8.53107 4080 ft 233 kts 179°
2026-04-18 10:04 49.91985 8.53218 5078 ft 233 kts 180°
2026-04-18 10:04 49.90360 8.53329 6075 ft 234 kts 179°
2026-04-18 10:04 49.88733 8.53439 7069 ft 234 kts 179°
2026-04-18 10:04 49.87115 8.53545 7938 ft 238 kts 179°
2026-04-18 10:05 49.85439 8.53656 8806 ft 243 kts 179°
2026-04-18 10:05 49.83730 8.53771 9690 ft 248 kts 179°
2026-04-18 10:05 49.81987 8.53889 10527 ft 253 kts 179°
2026-04-18 10:05 49.80218 8.54007 11324 ft 258 kts 180°
2026-04-18 10:06 49.78401 8.54119 12132 ft 263 kts 182°
2026-04-18 10:06 49.76535 8.53937 12662 ft 279 kts 188°
2026-04-18 10:06 49.74517 8.53658 12997 ft 303 kts 188°
2026-04-18 10:06 49.72334 8.53353 13285 ft 327 kts 188°
2026-04-18 10:07 49.69985 8.53032 13536 ft 350 kts 188°
2026-04-18 10:07 49.67516 8.52706 14067 ft 361 kts 188°
2026-04-18 10:07 49.64993 8.52379 14721 ft 366 kts 188°
2026-04-18 10:07 49.62435 8.52048 15424 ft 371 kts 188°
2026-04-18 10:08 49.59853 8.51714 16122 ft 375 kts 188°
2026-04-18 10:08 49.57243 8.51376 16818 ft 378 kts 188°
2026-04-18 10:08 49.54604 8.51031 17512 ft 382 kts 188°
2026-04-18 10:08 49.51942 8.50681 18188 ft 386 kts 188°
2026-04-18 10:09 49.49256 8.50325 18815 ft 390 kts 188°
2026-04-18 10:09 49.46541 8.49966 19406 ft 393 kts 188°
2026-04-18 10:09 49.43813 8.49608 20000 ft 395 kts 188°
2026-04-18 10:09 49.41056 8.49248 20556 ft 399 kts 188°
2026-04-18 10:10 49.38283 8.48891 21132 ft 402 kts 188°
2026-04-18 10:10 49.35487 8.48532 21704 ft 404 kts 188°
2026-04-18 10:10 49.32674 8.48167 22273 ft 407 kts 188°
2026-04-18 10:10 49.29844 8.47793 22822 ft 410 kts 188°
2026-04-18 10:11 49.26988 8.47417 23368 ft 413 kts 188°
2026-04-18 10:11 49.24118 8.47042 23881 ft 415 kts 187°
2026-04-18 10:11 49.21229 8.46670 24314 ft 418 kts 188°
2026-04-18 10:11 49.18318 8.46295 24741 ft 421 kts 188°
2026-04-18 10:12 49.15390 8.45913 25164 ft 424 kts 188°
2026-04-18 10:12 49.12438 8.45526 25581 ft 427 kts 188°
2026-04-18 10:12 49.09469 8.45141 25992 ft 429 kts 188°
2026-04-18 10:12 49.06530 8.44707 26392 ft 430 kts 192°
2026-04-18 10:13 49.03601 8.43789 26789 ft 431 kts 196°
2026-04-18 10:13 49.00672 8.42769 27199 ft 433 kts 196°
2026-04-18 10:13 48.97727 8.41742 27579 ft 436 kts 197°
2026-04-18 10:13 48.94765 8.40710 27973 ft 438 kts 197°
2026-04-18 10:14 48.91781 8.39672 28371 ft 441 kts 197°
2026-04-18 10:14 48.88781 8.38629 28755 ft 443 kts 197°
2026-04-18 10:14 48.85767 8.37582 29124 ft 446 kts 197°
2026-04-18 10:14 48.82731 8.36530 29482 ft 448 kts 197°
2026-04-18 10:15 48.79684 8.35475 29840 ft 451 kts 197°
2026-04-18 10:15 48.76624 8.34405 30183 ft 453 kts 197°
2026-04-18 10:15 48.73543 8.33294 30466 ft 455 kts 197°
2026-04-18 10:15 48.70460 8.32161 30739 ft 457 kts 198°
2026-04-18 10:16 48.67366 8.31016 31063 ft 457 kts 198°
2026-04-18 10:16 48.64284 8.29877 31486 ft 456 kts 197°
2026-04-18 10:16 48.61207 8.28750 31930 ft 454 kts 197°
2026-04-18 10:16 48.58141 8.27636 32345 ft 453 kts 197°
2026-04-18 10:17 48.55084 8.26530 32760 ft 451 kts 197°
2026-04-18 10:17 48.52028 8.25460 33168 ft 451 kts 194°
2026-04-18 10:17 48.48893 8.24940 33563 ft 455 kts 185°
2026-04-18 10:17 48.45725 8.25178 33950 ft 459 kts 175°
2026-04-18 10:18 48.42574 8.25940 34341 ft 458 kts 174°
2026-04-18 10:18 48.39428 8.26714 34706 ft 457 kts 174°
2026-04-18 10:18 48.36292 8.27476 35050 ft 456 kts 174°
2026-04-18 10:18 48.33162 8.28231 35367 ft 455 kts 174°
2026-04-18 10:19 48.30032 8.28986 35712 ft 454 kts 174°
2026-04-18 10:19 48.26915 8.29739 36026 ft 454 kts 174°
2026-04-18 10:19 48.23801 8.30489 36325 ft 453 kts 174°
2026-04-18 10:19 48.20691 8.31234 36634 ft 452 kts 174°
2026-04-18 10:20 48.17590 8.31974 36940 ft 451 kts 174°
2026-04-18 10:20 48.14488 8.32715 37154 ft 451 kts 174°
2026-04-18 10:20 48.11387 8.33461 37189 ft 451 kts 174°
2026-04-18 10:21 48.05203 8.34961 37190 ft 450 kts 174°
2026-04-18 10:21 47.99024 8.36460 37192 ft 450 kts 174°
2026-04-18 10:22 47.92840 8.37961 37192 ft 450 kts 174°
2026-04-18 10:22 47.86659 8.39458 37197 ft 450 kts 174°
2026-04-18 10:23 47.80471 8.40943 37195 ft 450 kts 174°
2026-04-18 10:23 47.74289 8.42426 37198 ft 450 kts 172°
2026-04-18 10:24 47.68366 8.45579 37185 ft 458 kts 153°
2026-04-18 10:24 47.63306 8.51400 37191 ft 463 kts 140°
2026-04-18 10:25 47.58597 8.57829 37193 ft 464 kts 140°
2026-04-18 10:25 47.53813 8.64334 37201 ft 464 kts 140°
2026-04-18 10:26 47.49056 8.70799 37206 ft 465 kts 140°
2026-04-18 10:26 47.44321 8.77206 37200 ft 465 kts 140°
2026-04-18 10:27 47.39518 8.83686 37201 ft 465 kts 140°
2026-04-18 10:27 47.34743 8.90129 37198 ft 465 kts 140°
2026-04-18 10:28 47.29956 8.96555 37199 ft 466 kts 140°
2026-04-18 10:28 47.25193 9.02934 37195 ft 466 kts 140°
2026-04-18 10:29 47.20397 9.09340 37186 ft 466 kts 140°
2026-04-18 10:29 47.15593 9.15740 37193 ft 465 kts 140°
2026-04-18 10:30 47.10761 9.22176 37201 ft 466 kts 140°
2026-04-18 10:30 47.05987 9.28502 37204 ft 465 kts 140°
2026-04-18 10:31 47.01148 9.34903 37205 ft 465 kts 140°
2026-04-18 10:31 46.96362 9.41216 37207 ft 466 kts 140°
2026-04-18 10:32 46.91542 9.47554 37204 ft 466 kts 140°
2026-04-18 10:32 46.86715 9.53881 37214 ft 466 kts 140°
2026-04-18 10:33 46.81886 9.60202 37212 ft 466 kts 140°
2026-04-18 10:33 46.77055 9.66505 37223 ft 466 kts 140°
2026-04-18 10:34 46.72226 9.72794 37233 ft 466 kts 139°
2026-04-18 10:34 46.67394 9.79081 37246 ft 466 kts 139°
2026-04-18 10:35 46.62555 9.85338 37245 ft 465 kts 139°
2026-04-18 10:35 46.57716 9.91602 37243 ft 466 kts 140°
2026-04-18 10:36 46.52872 9.97865 37238 ft 466 kts 139°
2026-04-18 10:36 46.48016 10.04114 37235 ft 466 kts 139°
2026-04-18 10:37 46.43074 10.10200 37240 ft 466 kts 141°
2026-04-18 10:37 46.38052 10.16135 37229 ft 466 kts 142°
2026-04-18 10:38 46.33026 10.22064 37221 ft 466 kts 141°
2026-04-18 10:38 46.28019 10.28040 37219 ft 466 kts 141°
2026-04-18 10:39 46.23018 10.34013 37183 ft 467 kts 141°
2026-04-18 10:39 46.20509 10.36994 36914 ft 467 kts 141°
2026-04-18 10:39 46.17998 10.39966 36650 ft 467 kts 142°
2026-04-18 10:39 46.15485 10.42935 36030 ft 469 kts 141°
2026-04-18 10:40 46.12951 10.45930 35184 ft 472 kts 141°
2026-04-18 10:40 46.10412 10.48930 34469 ft 472 kts 141°
2026-04-18 10:40 46.07875 10.51926 33689 ft 472 kts 141°
2026-04-18 10:40 46.05333 10.54927 32920 ft 472 kts 141°
2026-04-18 10:41 46.02800 10.57923 32163 ft 472 kts 141°
2026-04-18 10:41 46.00257 10.60925 31423 ft 473 kts 141°
2026-04-18 10:41 45.97703 10.63919 30699 ft 474 kts 141°
2026-04-18 10:41 45.95149 10.66901 29960 ft 472 kts 141°
2026-04-18 10:42 45.92614 10.69864 29157 ft 468 kts 141°
2026-04-18 10:42 45.90097 10.72808 28355 ft 464 kts 141°
2026-04-18 10:42 45.87602 10.75724 27589 ft 461 kts 141°
2026-04-18 10:42 45.85125 10.78612 26833 ft 458 kts 141°
2026-04-18 10:43 45.82661 10.81481 26078 ft 454 kts 141°
2026-04-18 10:43 45.80217 10.84328 25339 ft 451 kts 141°
2026-04-18 10:43 45.77789 10.87157 24622 ft 449 kts 141°
2026-04-18 10:43 45.75375 10.89969 23919 ft 446 kts 141°
2026-04-18 10:44 45.72980 10.92750 23136 ft 442 kts 141°
2026-04-18 10:44 45.70587 10.95523 22309 ft 441 kts 141°
2026-04-18 10:44 45.68212 10.98266 21527 ft 439 kts 141°
2026-04-18 10:44 45.66642 11.00082 21019 ft 438 kts 141°
2026-04-18 10:45 45.64448 11.03082 20269 ft 435 kts 130°
2026-04-18 10:45 45.62157 11.07737 19296 ft 431 kts 121°
2026-04-18 10:45 45.60549 11.11330 18588 ft 429 kts 121°
2026-04-18 10:45 45.59460 11.13752 18058 ft 428 kts 122°
2026-04-18 10:46 45.57857 11.17310 17270 ft 425 kts 121°
2026-04-18 10:46 45.55746 11.21996 16249 ft 422 kts 121°
2026-04-18 10:46 45.54161 11.25507 15498 ft 420 kts 121°
2026-04-18 10:46 45.52583 11.29002 14766 ft 418 kts 121°
2026-04-18 10:47 45.51519 11.31353 14286 ft 417 kts 121°
2026-04-18 10:47 45.49955 11.34814 13530 ft 414 kts 121°
2026-04-18 10:47 45.48402 11.38252 12748 ft 411 kts 121°
2026-04-18 10:47 45.46872 11.41633 12396 ft 398 kts 121°
2026-04-18 10:48 45.45402 11.44875 12149 ft 383 kts 122°
2026-04-18 10:48 45.43982 11.48002 11901 ft 369 kts 122°
2026-04-18 10:48 45.42575 11.50989 11652 ft 358 kts 127°
2026-04-18 10:48 45.40966 11.53617 11400 ft 347 kts 131°
2026-04-18 10:49 45.39377 11.56129 11157 ft 337 kts 131°
2026-04-18 10:49 45.37825 11.58578 10905 ft 329 kts 131°
2026-04-18 10:49 45.36347 11.61009 10664 ft 321 kts 125°
2026-04-18 10:49 45.35256 11.63720 10423 ft 312 kts 111°
2026-04-18 10:50 45.34595 11.66621 10138 ft 306 kts 105°
2026-04-18 10:50 45.33992 11.69530 9704 ft 306 kts 104°
2026-04-18 10:50 45.33410 11.72402 9260 ft 306 kts 104°
2026-04-18 10:50 45.32821 11.75349 8802 ft 306 kts 104°
2026-04-18 10:51 45.32246 11.78266 8296 ft 307 kts 104°
2026-04-18 10:51 45.31689 11.81126 7795 ft 299 kts 104°
2026-04-18 10:51 45.31141 11.83962 7300 ft 288 kts 104°
2026-04-18 10:51 45.30630 11.86624 6811 ft 279 kts 104°
2026-04-18 10:52 45.30134 11.89247 6318 ft 271 kts 104°
2026-04-18 10:52 45.29664 11.91793 5809 ft 263 kts 104°
2026-04-18 10:52 45.29221 11.94277 5304 ft 256 kts 105°
2026-04-18 10:52 45.28804 11.96733 4796 ft 250 kts 105°
2026-04-18 10:53 45.28423 11.99076 4337 ft 242 kts 105°
2026-04-18 10:53 45.28062 12.01344 4086 ft 231 kts 104°
2026-04-18 10:53 45.27735 12.03564 3834 ft 228 kts 97°
2026-04-18 10:53 45.27947 12.05759 3575 ft 227 kts 68°
2026-04-18 10:54 45.28883 12.07562 3336 ft 229 kts 44°
2026-04-18 10:54 45.30083 12.09083 3085 ft 229 kts 43°
2026-04-18 10:54 45.31241 12.10540 2994 ft 219 kts 43°
2026-04-18 10:54 45.32341 12.11935 2998 ft 206 kts 43°
2026-04-18 10:55 45.33372 12.13248 3038 ft 192 kts 42°
2026-04-18 10:55 45.34328 12.14467 3013 ft 184 kts 42°
2026-04-18 10:55 45.35288 12.15692 3008 ft 186 kts 43°
2026-04-18 10:55 45.36250 12.16919 3003 ft 181 kts 43°
2026-04-18 10:56 45.37126 12.18037 3004 ft 160 kts 43°
2026-04-18 10:56 45.37924 12.19056 2936 ft 150 kts 43°
2026-04-18 10:56 45.38690 12.20035 2791 ft 146 kts 43°
2026-04-18 10:56 45.39443 12.20997 2619 ft 145 kts 43°
2026-04-18 10:57 45.40186 12.21948 2452 ft 143 kts 43°
2026-04-18 10:57 45.40925 12.22892 2251 ft 142 kts 43°
2026-04-18 10:57 45.41656 12.23827 2063 ft 141 kts 43°
2026-04-18 10:57 45.42386 12.24762 1886 ft 143 kts 44°
2026-04-18 10:58 45.43145 12.25730 1694 ft 148 kts 44°
2026-04-18 10:58 45.43921 12.26721 1510 ft 151 kts 45°
2026-04-18 10:58 45.44703 12.27717 1257 ft 151 kts 43°
2026-04-18 10:58 45.45479 12.28713 1042 ft 148 kts 43°
2026-04-18 10:59 45.46242 12.29677 854 ft 145 kts 43°
2026-04-18 10:59 45.47001 12.30627 677 ft 145 kts 44°
2026-04-18 10:59 45.47739 12.31601 489 ft 144 kts 45°
2026-04-18 10:59 45.48478 12.32558 295 ft 142 kts 45°
2026-04-18 11:00 45.49200 12.33491 106 ft 139 kts 45°
2026-04-18 11:00 45.49892 12.34387 15 ft 124 kts 45°
2026-04-18 11:00 45.50420 12.35069 14 ft 77 kts 41°
2026-04-18 11:00 45.50689 12.35379 17 ft 27 kts 14°
2026-04-18 11:01 45.50786 12.35413 16 ft 12 kts 21°
2026-04-18 11:01 45.50863 12.35444 16 ft 11 kts 15°
2026-04-18 11:01 45.50934 12.35452 17 ft 9 kts 350°
2026-04-18 11:02 45.50960 12.35238 18 ft 15 kts 252°
2026-04-18 11:02 45.50892 12.35122 16 ft 17 kts 222°
2026-04-18 11:02 45.50798 12.35002 16 ft 20 kts 222°
2026-04-18 11:02 45.50689 12.34863 16 ft 22 kts 221°
2026-04-18 11:03 45.50607 12.34674 16 ft 25 kts 265°
2026-04-18 11:03 45.50599 12.34488 16 ft 16 kts 266°
2026-04-18 11:03 45.50612 12.34358 16 ft 11 kts 287°
2026-04-18 11:03 45.50617 12.34257 16 ft 10 kts 266°
2026-04-18 11:04 45.50616 12.34221 16 ft 0 kts 268°
2026-04-18 11:04 45.50616 12.34215 16 ft 0 kts 268°